Airfield :
LOGIN :

Register | Disclaimer

   EN    FR    IT 

 










Legend :    VFR   Marginal VFR   IFR   Intensive IFR   Very Intensive IFR
Visi :
Ceiling :
>= 8 km
>= 3000ft
5 to 8 km
1000 to 3000 ft
1500m to 5 km
500 to 1000 ft
800 to 1500m
200 to 500 ft
< 800m
< 200 ft
Symbols :   Thunderstorms  Fog  Heavy snow  Heavy precipitations  Wind > 20 kt
SIGMETs :     Misc.  Thunderstorms  Icing  Turbulence  Mountain Waves  Volcanic Ashes







- Airport Elevation : 65 ft
- IATA code : PIK
- Download approach charts


EGPK - Glasgow Prestwick

CURRENT METAR :
  • 180720Z 11002KT 9999 FEW020 SCT035 08/07 Q1014

EXPIRED METARs :
  • 180650Z VRB02KT 9999 FEW020 SCT035 08/07 Q1013
  • 180620Z 06002KT 9999 FEW020 SCT025 09/07 Q1013
  • 180550Z 08002KT 9999 FEW020 09/07 Q1014
  • 180450Z 10005KT 9999 FEW030 09/08 Q1014

TAF TAF EGPK
Valid from the 18 at 06:00 until the 19 at 06:00 UTC


180500Z 1806/1906 10008KT 9999 FEW030
TEMPO 1821/1906 4000 RADZ BKN008
No reported NOTAMs for that airfield.



MET'MAP, your aeronautical weather chart ! - Copyright ORBIFLY December 2007 - Disclaimer

ORBIFLY MET'MAP TEAM :

Programming & Development : Alexandra Zaïnal
Concept & Development : Baudouin d'Aumeries
Co-Development & Prog : Marc-Olivier Méhu
Technical & hardware support : Manuel Goepfert

Contact : metmap@orbifly.com




SOURCES & CREDITS :

   NOAA